Regional Weather Roundup
Issued by NWS

Home | Current Version | Previous Version | Text Only | Print | Product List | Glossary On
Versions: 1 2 3 4 5 6 7 8 9 10 11 12 13 14 15 16 17 18 19 20 21 22 23 24 25 26 27 28 29 30 31 32 33 34 35 36 37 38 39 40 41 42 43 44 45 46 47 48 49 50
000
ASUS43 KLSX 300407
RWRMO

WEATHER SUMMARY FOR MISSOURI
NATIONAL WEATHER SERVICE SPRINGFIELD MO
1100 PM CDT FRI AUG 29 2014

NOTE: "FAIR" INDICATES FEW OR NO CLOUDS BELOW 12,000 FEET WITH NO
       SIGNIFICANT WEATHER AND/OR OBSTRUCTIONS TO VISIBILITY.
       CURRENT SKY AND/OR WEATHER CONDITIONS ARE NOT AVAILABLE FOR
       CHILLICOTHE AND FARMINGTON.

MOZ001>031-035>038-043-044-053-054-300500-
...NORTHERN AND WESTERN MISSOURI...

CITY           SKY/WX    TMP DP  RH WIND       PRES   REMARKS
KANSAS CTY INT HVY RAIN  70  67  90 SW6       29.85R
KANSAS C DTWN  LGT RAIN  73  68  84 VRB6      29.84R
LEE`S SUMMIT   PTCLDY    72  68  87 S7        29.87R
ST JOSEPH      PTCLDY    71  66  84 SW3       29.84R
CHILLICOTHE      N/A     73  66  78 S8        29.84R
KIRKSVILLE     PTCLDY    69  67  93 S8        29.85F

$$
MOZ066>068-077>081-088>096-101>105-300500-
...SOUTHWEST MISSOURI...

CITY           SKY/WX    TMP DP  RH WIND       PRES   REMARKS
SPRINGFIELD    CLEAR     74  67  78 S12       29.94R
JOPLIN         MOCLDY    77  66  68 S12       29.92R

$$
MOZ032>034-039>042-045>050-055>058-069>072-300500-
...CENTRAL MISSOURI...

CITY           SKY/WX    TMP DP  RH WIND       PRES   REMARKS
COLUMBIA       PTCLDY    73  70  90 S8        29.90S
JEFFERSON CITY PTCLDY    75  69  81 S6        29.89S
ROLLA          MOCLDY    72  67  84 S10       29.93R
SEDALIA        CLEAR     75  69  81 S9        29.89S
WHITEMAN AFB   CLEAR     72  67  84 S6        29.87R
OSAGE BEACH    PTCLDY    72  66  83 S7        29.92S

$$
MOZ051-052-059>065-300500-
...EAST CENTRAL MISSOURI...

CITY           SKY/WX    TMP DP  RH WIND       PRES   REMARKS
ST LOUIS INTL  CLOUDY    81  69  67 S13G22    29.92R
SPIRIT OF STL  CLOUDY    78  69  73 S8        29.90R
ST CHARLES     CLOUDY    76  72  87 S3        29.90R

$$
MOZ072>076-082>087-097>100-106>115-300500-
...SOUTH CENTRAL AND SOUTHEAST MISSOURI...

CITY           SKY/WX    TMP DP  RH WIND       PRES   REMARKS
CAPE GIRARDEAU RAIN      72  70  93 S13       30.00S FOG
FARMINGTON     CLOUDY    72  68  88 S9        30.01R
POPLAR BLUFF   CLOUDY    72  68  87 S5        29.98F
WEST PLAINS    CLOUDY    73  68  84 S6        30.00R

$$



USA.gov is the U.S. government's official web portal to all federal, state and local government web resources and services.